Weather in Byzovo

Russia / Tyumen Oblast     56°17′59″N   66°11′27″E
temp.,
°C
wind,
m/s
gust,
m/s
humid.,
%
clouds,
%
prec.,
mm/h
press.,
hPa
HPBL,
m
17 april, sat
sat1723:00+3ene49650 0.0 1027249
02:00+1ene35705 0.0 1028116
05:000se22700 0.0 102838
08:00+3s22560 0.0 1028293
11:00+7wsw33440 0.0 10261212
14:00+9wsw46364 0.0 10241783
17:00+10w57367 0.0 10212007
20:00+6wsw365516 0.0 1020104
18 april, sun
sun1823:00+4wsw38678 0.0 1018152
02:00+3w397292 0.0 1016168
05:00+3w512755 0.0 1015317
08:00+5wnw7127127 0.0 1014823
11:00+3n91365100 0.4 10171326
14:00+3n91139100 0.0 10222161
17:00+1n8103284 0.0 10252243
20:00−2nne610400 0.0 1029851
19 april, mon
mon1923:00−3nne58430 0.0 10311094
02:00−4nne49420 0.0 10331256
05:00−5nne37440 0.0 10341191
08:00−4nne56375 0.0 10361318
11:00−2n463242 0.0 10361698
14:000n4629100 0.0 10352119
17:00+1n5630100 0.0 10352186
20:00−2n22445 0.0 103612
20 april, tue
tue2023:00−3wsw11450 0.0 103610
02:00−4w23495 0.0 103565
05:00−4wsw38505 0.0 1035190
08:00+1w593896 0.0 1034577
11:00+4w7932100 0.0 10321305
14:00+7wnw79335 0.0 10301655
17:00+8wnw69355 0.0 10291639
20:00+4wnw35565 0.0 102959
21 april, wed
wed2123:00+2w38655 0.0 1029120
02:00+1w397059 0.0 1029159
05:00+1wnw410755 0.0 1029172
08:00+5nw510665 0.0 1030390
11:00+9nnw68545 0.0 10301207
14:00+12n574662 0.0 10311772
17:00+10ne55546 0.0 10321052
20:00+6e47685 0.0 1034219